Location: Unnamed
(51.5169°N, 0.1311°W)
Time: 03:37:06
(UTC+01:00)

Envisat - Visible Passes

Search period start: 18 July 2024 00:00
Search period end: 28 July 2024 00:00
Orbit: 762 x 764 km, 98.3° (Epoch: 17 July)

Date Brightness Start Highest point End Pass type
(mag) Time Alt. Az. Time Alt. Az. Time Alt. Az.
18 Jul 3.9 03:58:15 10° NNE 04:03:12 49° E 04:08:06 10° S visible
19 Jul 4.9 03:21:22 10° NE 03:25:31 25° E 03:29:40 10° SSE visible
20 Jul 5.5 02:45:31 10° ENE 02:47:37 12° E 02:49:44 10° ESE visible
21 Jul 4.2 03:45:11 10° NNE 03:49:56 38° E 03:54:39 10° SSE visible
22 Jul 5.2 03:08:30 10° NE 03:12:11 20° E 03:15:50 10° SE visible
23 Jul 3.5 04:09:12 10° NNE 04:14:15 60° ESE 04:19:16 10° S visible
24 Jul 4.6 03:32:09 10° NNE 03:36:38 30° E 03:41:05 10° SSE visible
25 Jul 5.4 02:55:48 10° NE 02:58:48 16° E 03:01:47 10° ESE visible
26 Jul 3.9 03:56:04 10° NNE 04:00:59 47° E 04:05:52 10° S visible
27 Jul 4.9 03:19:11 10° NE 03:23:18 24° E 03:27:23 10° SE visible
